Regional Weather Roundup
Issued by NWS Green Bay, WI

Home | Current Version | Previous Version | Graphics & Text | Print | Product List | Glossary Off
Versions: 1 2 3 4 5 6 7 8 9 10 11 12 13 14 15 16 17 18 19 20 21 22 23 24 25 26 27 28 29 30 31 32 33 34 35 36 37 38 39 40 41 42 43 44 45 46 47 48 49 50

000
ASUS43 KGRB 280459
RWRGRB

NORTH-CENTRAL AND NORTHEAST WISCONSIN REGIONAL WEATHER ROUNDUP
NATIONAL WEATHER SERVICE GREEN BAY WI
1100 PM CST FRI FEB 27 2015

WIZ005-009-010>012-018-019-280600-
NORTH CENTRAL WISCONSIN

CITY           SKY/WX    TMP DP  RH WIND       PRES   REMARKS
IRONWOOD       CLEAR      7  -6  56 SW10      30.40S WCI  -8
MANITOWISH WTR NOT AVBL
ARBOR VITAE    NOT AVBL
EAGLE RIVER    NOT AVBL
LAND O LAKES   NOT AVBL
RHINELANDER      N/A     -2 -10  69 W6        30.43S WCI -14
PHILLIPS       NOT AVBL
ANTIGO         NOT AVBL
TOMAHAWK       NOT AVBL
MERRILL        NOT AVBL
$$

WIZ013-073-280600-
NORTHEAST WISCONSIN

CITY           SKY/WX    TMP DP  RH WIND       PRES   REMARKS
IRON MOUNTAIN  CLEAR      7  -6  55 CALM      30.43S
MARINETTE      CLEAR      9  -6  52 SW6       30.52S WCI  -1
$$

WIZ017-030-035>037-045-280600-
CENTRAL WISCONSIN

CITY           SKY/WX    TMP DP  RH WIND       PRES   REMARKS
MEDFORD        NOT AVBL
WAUSAU           N/A      3  -6  66 VRB3      30.49S
MOSINEE        NOT AVBL
MARSHFIELD     CLEAR      2  -8  63 SW6       30.51S WCI  -9
WISC RAPIDS    CLEAR     -1  -9  68 SW6       30.56S WCI -13
STEVENS POINT  NOT AVBL
WAUPACA        NOT AVBL
SHAWANO        NOT AVBL
CLINTONVILLE   NOT AVBL
$$

WIZ038-039-048-051-280600-
FOX VALLEY

CITY           SKY/WX    TMP DP  RH WIND       PRES   REMARKS
NWS GREEN BAY  CLEAR     10  -4  53 SW7       30.56S WCI  -1
APPLETON       CLEAR      7  -6  56 SW7       30.55S WCI  -5
OSHKOSH        CLEAR      6  -4  63 SW8       30.57S WCI  -7
FOND DU LAC    CLEAR      6  -5  60 SW7       30.58S WCI  -6
$$

WIZ022-050-052-280600-
EAST CENTRAL WISCONSIN

CITY           SKY/WX    TMP DP  RH WIND       PRES   REMARKS
STURGEON BAY   CLEAR      9  -6  52 W7        30.55S WCI  -3
MANITOWOC      NOT AVBL
SHEBOYGAN      CLEAR      5  -5  63 W9        30.58S WCI  -9
$$

LMZ563-521-522-541>543-280600-
LAKESHORE

STATION/POSITION TIME  TEMP    WIND        PRES    VSBY  WAVE
                       AIR SEA DIR/SP/G                  HT/PER
                 (UTC) (F)     (DEG/KT/KT) (MB)    (MI)  (FT/S)
SHEBOYGAN LKSHOR 0400   11     240/ 10/ 13 1037.8R
KEWAUNEE LKSHORE 0400   10     250/  3/  7 1033.8R
NORTHPORT PIER   0400   12     240/  5/ 10 1033.2R
CHAMBERS ISLAND  0400   10     200/  8/ 13 1033.2R
MENOMINEE LKSHOR 0400   11     220/  8     1034.3R
$$



USA.gov is the U.S. government's official web portal to all federal, state and local government web resources and services.